Visibility
15.0 15.0 15.0 15.0 15.0 15.0 15.0 9.8 15.0 15.0 15.0 15.0 15.0 15.0 15.0 14.2 15.0 15.0 14.5 15.0 15.0 15.0
15.0 15.0 15.0 15.0 15.0 15.0 15.0 15.0 15.0 2.9 0.3 0.3 0.3 0.5 3.2 14.0 12.7 7.8 14.4 15.0 14.6 13.7
15.0 15.0 15.0 15.0 0.2 0.7 0.5 3.9 10.3 9.7 15.0 10.0 1.3 6.5 4.4 5.4 4.9 4.6 9.0 8.2 5.8 4.5
14.8 15.0 15.0 11.8 3.2 2.6 4.5 2.7 5.7 3.4 6.9 15.0 7.8 8.8 0.4 1.7 2.1 3.8 6.6 4.9 6.1 7.3
3.0 2.1 2.5 7.3 8.9 7.5 15.0 15.0 14.8 4.6 13.7 15.0 8.4 8.3 14.0 6.4 6.5 8.6 7.5 2.0 0.6 1.8
13.7 15.0 15.0 15.0 5.1 15.0 15.0 13.3 10.7 15.0 13.7 15.0 15.0 15.0 11.2 14.8 9.3 7.9 13.3 4.0 3.3 2.6
15.0 15.0 15.0 15.0 15.0 15.0 15.0 15.0 15.0 15.0 15.0 15.0 15.0 15.0 15.0 15.0 15.0 15.0 15.0 15.0 15.0 15.0
15.0 15.0 15.0 15.0 15.0 15.0 15.0 15.0 15.0 15.0 15.0 15.0 15.0 15.0 15.0 15.0 15.0 15.0 15.0 15.0 15.0 15.0
15.0 15.0 15.0 15.0 15.0 15.0 15.0 15.0 15.0 15.0 15.0 15.0 15.0 15.0 15.0 15.0 15.0 15.0 15.0 15.0 15.0 15.0
15.0 15.0 15.0 15.0 15.0 15.0 15.0 15.0 15.0 15.0 15.0 15.0 15.0 15.0 15.0 15.0 15.0 15.0 15.0 15.0 15.0 15.0
15.0 15.0 15.0 15.0 15.0 15.0 15.0 15.0 15.0 15.0 15.0 15.0 15.0 15.0 15.0 15.0 15.0 15.0 15.0 15.0 15.0 15.0
15.0 15.0 15.0 15.0 15.0 15.0 15.0 15.0 15.0 15.0 15.0 15.0 15.0 15.0 15.0 15.0 15.0 15.0 15.0 15.0 15.0 15.0
15.0 15.0 15.0 15.0 15.0 15.0 15.0 15.0 15.0 15.0 15.0 15.0 15.0 15.0 15.0 15.0 15.0 15.0 15.0 15.0 15.0 15.0
15.0 15.0 15.0 15.0 15.0 15.0 15.0 15.0 15.0 15.0 15.0 15.0 15.0 15.0 15.0 15.0 15.0 15.0 15.0 15.0 15.0 15.0